カタログに戻る

COSMOS 1750

運用中ナビゲーションLEO
NORAD 16760·PAYLOAD·🇷🇺 Russia

打ち上げ Jun 6, 1986 から Plesetsk Cosmodrome

Loading…

次のパス (今後24時間)

TLE

最新Source: Space-Track

元期: Sep 14, 2026, 13:47 UTC

1 16760U 86042C   26257.57432037  .00000003  00000-0  11319-3 0  9994
2 16760  74.0217 337.3550 0038878  83.5600 340.8045 12.56168490846830

AllMySatでCOSMOS 1750をリアルタイム追跡

Download on the App Store